Weather History for KMCK - March, 2013

Change the Weather History Date:

Saturday, March 16, 2013

  Actual Average Record
Temperature  
Mean Temperature 39 °F 39 °F  
Max Temperature 48 °F 54 °F 93 °F (2015)
Min Temperature 30 °F 25 °F 7 °F (1958)
Degree Days  
Heating Degree Days 25    
Moisture  
Dew Point 29 °F    
Average Humidity 72    
Maximum Humidity 93    
Minimum Humidity 42    
Precipitation  
Precipitation 0.11 in 0.05 in 0.11 in (2013)
Month to date precipitation 0.16 0.63  
Year to date precipitation 1.33 1.76  
Sea Level Pressure  
Sea Level Pressure 30.02 in    
Wind  
Wind Speed 11 mph (ENE)    
Max Wind Speed 17 mph    
Max Gust Speed -    
Visibility 8 miles    
Events Rain , Snow    
T = Trace of Precipitation, MM = Missing Value Source: NWS Daily Summary

Daily Weather History Graph

Daily Weather History Graph

Search for Another Location

Airport or City:

Trip Planner

Search our weather history database for the weather conditions in past years. The results will help you decide how hot, cold, wet, or windy it might be!

Date:

Astronomy

Mar. 16, 2013 Rise Set
Actual Time 7:51 AM CDT 7:50 PM CDT
Civil Twilight 7:24 AM CDT 8:17 PM CDT
Nautical Twilight 6:53 AM CDT 8:49 PM CDT
Astronomical Twilight 6:21 AM CDT 9:21 PM CDT
Moon 10:22 AM CDT (3/16) 12:05 AM CDT (3/16)
Length of Visible Light 12h 52m
Length of Day
11h 58m
Waxing Crescent, 23% of the Moon is Illuminated
Mar 16
Waxing Crescent
Mar 19
First Quarter
Mar 27
Full
Apr 2
Last Quarter
Apr 10
New

Hourly Weather History & Observations

Time (CDT) Temp. Windchill Dew Point Humidity Pressure Visibility Wind Dir Wind Speed Gust Speed Precip Events Conditions
12:53 AM 48.9 °F - 34.0 °F 56% 29.86 in 10.0 mi ENE 13.8 mph - N/A   Clear
1:53 AM 45.0 °F 40.1 °F 33.1 °F 63% 29.88 in 10.0 mi NE 9.2 mph - N/A   Clear
2:53 AM 42.1 °F - 33.1 °F 70% 29.92 in 10.0 mi Calm Calm - N/A   Clear
3:53 AM 41.0 °F 38.0 °F 32.0 °F 70% 29.94 in 10.0 mi NNE 4.6 mph - N/A   Clear
4:53 AM 41.0 °F 35.2 °F 30.9 °F 67% 29.94 in 10.0 mi NE 9.2 mph - N/A   Scattered Clouds
5:53 AM 39.9 °F 32.5 °F 30.0 °F 68% 29.99 in 10.0 mi NNE 12.7 mph - N/A   Clear
6:53 AM 37.9 °F 30.5 °F 30.0 °F 73% 29.99 in 10.0 mi NE 11.5 mph - N/A   Scattered Clouds
7:53 AM 35.1 °F 27.4 °F 28.0 °F 76% 30.04 in 8.0 mi NE 10.4 mph - N/A   Clear
8:53 AM 33.1 °F 23.0 °F 27.0 °F 78% 30.07 in 7.0 mi NE 15.0 mph - N/A   Clear
9:20 AM 33.8 °F 23.5 °F 26.6 °F 75% 30.05 in 8.0 mi NE 16.1 mph - N/A   Mostly Cloudy
9:41 AM 35.6 °F 25.9 °F 26.6 °F 70% 30.06 in 8.0 mi NNE 16.1 mph - N/A   Scattered Clouds
9:53 AM 36.0 °F 26.3 °F 27.0 °F 70% 30.07 in 8.0 mi NNE 16.1 mph - N/A   Mostly Cloudy
9:59 AM 35.6 °F 25.9 °F 26.6 °F 70% 30.06 in 8.0 mi NE 16.1 mph - N/A   Scattered Clouds
10:53 AM 39.0 °F 31.4 °F 27.0 °F 62% 30.08 in 9.0 mi NE 12.7 mph - N/A   Partly Cloudy
11:53 AM 42.1 °F 36.6 °F 28.0 °F 58% 30.08 in 10.0 mi NE 9.2 mph - N/A   Clear
12:53 PM 43.0 °F 38.2 °F 26.1 °F 51% 30.08 in 10.0 mi NNE 8.1 mph - N/A   Clear
1:53 PM 46.0 °F 41.4 °F 26.1 °F 46% 30.06 in 10.0 mi East 9.2 mph - N/A   Scattered Clouds
2:53 PM 46.0 °F 41.0 °F 25.0 °F 44% 30.05 in 10.0 mi East 10.4 mph - N/A   Mostly Cloudy
3:53 PM 46.9 °F - 25.0 °F 42% 30.04 in 10.0 mi East 5.8 mph - N/A   Overcast
4:53 PM 45.0 °F 38.9 °F 23.0 °F 42% 30.04 in 10.0 mi ENE 12.7 mph - N/A   Overcast
5:53 PM 42.1 °F 36.6 °F 23.0 °F 47% 30.04 in 10.0 mi East 9.2 mph - N/A   Overcast
6:32 PM 37.4 °F 29.3 °F 30.2 °F 75% 30.00 in 1.8 mi ESE 12.7 mph - 0.01 in Snow Light Snow
6:53 PM 35.1 °F 28.6 °F 32.0 °F 89% 30.05 in 1.5 mi ESE 8.1 mph - 0.07 in Rain Rain
7:22 PM 35.6 °F 29.2 °F 32.0 °F 87% 30.00 in 2.5 mi East 8.1 mph - 0.04 in Rain Light Rain
7:32 PM 35.6 °F 27.5 °F 32.0 °F 87% 30.00 in 4.0 mi East 11.5 mph - 0.04 in Rain Light Rain
7:53 PM 35.1 °F 26.9 °F 32.0 °F 89% 30.06 in 6.0 mi East 11.5 mph - 0.04 in   Overcast
8:03 PM 35.6 °F 29.2 °F 32.0 °F 87% 30.02 in 6.0 mi East 8.1 mph - 0.00 in   Overcast
8:53 PM 34.0 °F 23.4 °F 30.0 °F 85% 30.05 in 8.0 mi ESE 17.3 mph - 0.00 in   Mostly Cloudy
9:00 PM 33.8 °F - 30.2 °F 87% 29.99 in 8.0 mi North - - N/A   Scattered Clouds
9:48 PM 32.0 °F 24.8 °F 30.2 °F 93% 30.02 in 7.0 mi East 8.1 mph - N/A   Mostly Cloudy
9:53 PM 32.0 °F 23.6 °F 30.0 °F 92% 30.08 in 7.0 mi East 10.4 mph - N/A   Mostly Cloudy
10:42 PM 32.0 °F 23.6 °F 28.4 °F 87% 30.03 in 8.0 mi East 10.4 mph - N/A   Overcast
10:53 PM 32.0 °F 24.2 °F 28.9 °F 88% 30.08 in 9.0 mi ESE 9.2 mph - N/A   Overcast
11:53 PM 30.9 °F 22.2 °F 28.0 °F 89% 30.07 in 9.0 mi East 10.4 mph - N/A   Overcast